User: anonymous   Login
Location: Myra
(43.4160°N, 88.0960°W)
Time: 04:30:14
(UTC-05:00)
Language:

SL-8 R/B - Orbit

View from above orbital plane
View from above orbital plane
View from above satellite
View from above satellite

Ground track
Ground track

The orbit data is extracted from the following two-line orbital elements,

1 33066U 08031G   15144.82211699  .00000099  00000-0  49461-4 0  9999
2 33066 048.4450 038.1951 0007573 171.6786 224.8965 14.69227256371821
Epoch (UTC): 24 May 2015 19:43:50
Eccentricity: 0.0007573
inclination: 48.4450°
perigee height: 658 km
apogee height: 669 km
right ascension of ascending node: 38.1951°
argument of perigee: 171.6786°
revolutions per day: 14.69227256
mean anomaly at epoch: 224.8965°
orbit number at epoch: 37182

The dashed part of the orbit path shows where the satellite is in the earth's shadow,  

DLR